Other Surface Observations
Issued by NWS Jacksonville, FL

Home | Current Version | Previous Version | Text Only | Print | Product List | Glossary On
Versions: 1 2 3 4 5 6 7 8 9 10 11 12 13 14 15 16 17 18 19 20 21 22 23 24 25 26 27 28 29 30 31 32 33 34 35 36 37 38 39 40 41 42 43 44 45 46 47 48 49 50
000
SXUS52 KJAX 211210
OSOJAX
OTHER SURFACE OBSERVATIONS
NATIONAL WEATHER SERVICE JACKSONVILLE FL
800 AM EDT SUN SEP 21 2014

FLZ020>025-030>033-035>038-040-211300-
...FLORIDA...

CITY           SKY/WX    TMP DP  RH WIND       PRES   REMARKS
CECIL FIELD    CLEAR     63  63 100 CALM      30.01R
HERLONG FIELD  NOT AVBL
FERNANDINA BCH NOT AVBL
LAKE CITY      FAIR      64  64 100 N5        30.02R
JUNIPER SPGS   NOT AVBL
BUNNELL        SUNNY     68  66  94 CALM      29.99R
KEYSTONE HGTS    N/A     64  64 100 CALM      30.01R
$$

GAZ132>136-149>154-162>166-211300-
...GEORGIA...

CITY           SKY/WX    TMP DP  RH WIND       PRES   REMARKS
JESUP          FAIR      64  63  94 CALM      30.00S
HOMERVILLE     FAIR      64  63  94 NW3       30.03R
SWAINSBORO     FAIR      61  61 100 CALM      30.02R
CORDELE        NOT AVBL
$$

PLEASE NOTE:  THESE OBSERVATIONS ARE NOT QUALITY CONTROLLED AND MAY
NOT BE AVAILABLE AT ALL TIMES.
$$


USA.gov is the U.S. government's official web portal to all federal, state and local government web resources and services.